Location: Kergonan
(48.2337°N, 4.5518°W)
Time: 16:25:14
(UTC+00:00)

STARLINK-48 - Pass Details

Date: 18 January 2020
Orbit: 506 x 508 km, 53.0° (Epoch: 26 February)

Event Time Altitude Azimuth Distance (km) Brightness Sun altitude
Exits shadow 06:31:09 16° 236° (SW) 1,405 5.3 -14.8°
Maximum altitude 06:34:15 78° 152° (SSE) 523 3.5 -14.3°
Drops below altitude 10° 06:38:09 10° 65° (ENE) 1,727 6.9 -13.7°
Sets 06:40:21 0° 64° (ENE) 2,615 7.9 -13.3°
